Location: B?ogocice
(50.2413°N, 20.2361°E)
Time: 03:07:06
(UTC+00:00)

ALOS - Pass Details

Date: 21 September 2024
Orbit: 670 x 673 km, 98.0° (Epoch: 04 October)

Event Time Altitude Azimuth Distance (km) Brightness Sun altitude
Rises 01:29:19 0° 14° (NNE) 3,031 6.4 -26.8°
Reaches altitude 10° 01:31:34 10° 16° (NNE) 2,112 5.4 -26.5°
Enters shadow 01:36:02 80° 67° (ENE) 687 2.2 -25.9°
